Flag for Ukraine Weather past 2 weeks in Kyiv, Ukraine

Now
61 °F

Clear.


Feels Like: 61 °F
Forecast: 58 / 83 °F
Wind: 3 mph from Southwest

Location: Kyiv

Current Time: Jun 3, 2015 at 1:03:19 AM

Latest Report: Jun 3, 2015 at 12:30 AM


Visibility: 10 mi

Pressure: 30.09 "Hg

Humidity: 94%

Dew point: 59 °F

Location of KyivLocation

Historic Weather in Kyiv — Graph

°F

Kyiv temperature yesterday

Maximum temperature yesterday: 77 °F (at 12:00 PM)
Minimum temperature yesterday: 54 °F (at 3:30 AM)
Average temperature yesterday: 69 °F

Past Weeks' High & Low Weather Summary

 TemperatureHumidityPressure
High84 °F (May 24, 2:00 PM)100% (May 27, 2:30 AM)30.15 "Hg (May 27, 2:30 AM)
Low39 °F (May 19, 5:00 AM)29% (May 24, 5:00 PM)29.59 "Hg (May 27, 5:30 PM)
Average66 °F63%29.92 "Hg
* Reported May 18 11:00 PM — Jun 2 11:30 PM, Kyiv, Weather by CustomWeather, © 2015

Note: Actual official high and low records may vary slightly from our data, if they occured in-between our weather recording intervals... More about our weather records

Advertising

Kyiv weather history for previous 24 hours

 ConditionsComfort  
Time TempWeatherWind HumidityBarometerVisibility
11:30 PM
Tue, Jun 2
61 °FClear.3 mph94%30.09 "Hg10 mi
11:00 PM63 °FClear.1 mph83%30.09 "Hg10 mi
10:30 PM63 °FClear.No wind83%30.09 "Hg10 mi
10:00 PM66 °FClear.3 mph78%30.09 "Hg10 mi
9:30 PM68 °FSunny.3 mph69%30.09 "Hg10 mi
9:00 PM70 °FSunny.3 mph64%30.07 "Hg10 mi
8:30 PM72 °FSunny.1 mph61%30.07 "Hg10 mi
8:00 PM73 °FSunny.3 mph53%30.07 "Hg10 mi
7:30 PM75 °FSunny.3 mph50%30.07 "Hg10 mi
7:00 PM77 °FPassing clouds.3 mph47%30.07 "HgN/A
6:30 PM75 °FSunny.3 mph54%30.07 "Hg10 mi
6:00 PM72 °FSunny.6 mph65%30.07 "Hg10 mi
5:30 PM73 °FPartly sunny.3 mph57%30.07 "HgN/A
5:00 PM75 °FPartly sunny.1 mph47%30.07 "HgN/A
4:30 PM75 °FPartly sunny.8 mph50%30.07 "HgN/A
4:00 PM77 °FPartly sunny.3 mph51%30.07 "HgN/A
3:30 PM77 °FPartly sunny.3 mph51%30.07 "HgN/A
3:00 PM77 °FPartly sunny.3 mph47%30.07 "HgN/A
2:30 PM75 °FBroken clouds.No wind54%30.09 "HgN/A
2:00 PM75 °FPartly sunny.3 mph44%30.09 "HgN/A
1:30 PM77 °FPartly sunny.3 mph44%30.09 "HgN/A
1:00 PM77 °FBroken clouds.3 mph47%30.09 "HgN/A
12:30 PM77 °FPassing clouds.3 mph47%30.09 "HgN/A
12:00 PM77 °FBroken clouds.6 mph47%30.09 "HgN/A
11:30 AM75 °FScattered clouds.1 mph50%30.09 "HgN/A
11:00 AM75 °FPassing clouds.3 mph50%30.09 "HgN/A
10:30 AM73 °FPassing clouds.3 mph57%30.09 "HgN/A
10:00 AM73 °FPassing clouds.6 mph57%30.09 "HgN/A
9:30 AM73 °FPassing clouds.3 mph57%30.09 "HgN/A
9:00 AM70 °FSunny.No wind60%30.09 "Hg10 mi
8:30 AM70 °FSunny.No wind60%30.09 "Hg10 mi
8:00 AM66 °FSunny.1 mph64%30.09 "Hg10 mi
6:30 AM63 °FPassing clouds.3 mph64%30.09 "HgN/A
5:30 AM54 °FClear.No wind82%30.09 "Hg10 mi
5:00 AM55 °FClear.1 mph77%30.09 "Hg10 mi
4:30 AM55 °FClear.3 mph77%30.09 "Hg10 mi
4:00 AM54 °FClear.No wind82%30.09 "Hg10 mi
3:30 AM54 °FClear.1 mph82%30.09 "Hg10 mi
3:00 AM55 °FClear.No wind77%30.09 "Hg10 mi
2:30 AM57 °FClear.No wind77%30.09 "Hg10 mi
2:00 AM61 °FClear.1 mph63%30.09 "Hg10 mi
1:30 AM61 °FClear.1 mph63%30.09 "Hg10 mi
1:00 AM61 °FClear.1 mph63%30.09 "Hg10 mi
Weather by CustomWeather, © 2015

See weather overviewHow to use our weather pages